Home > Weather > Taiohae > Past weeks

Flag for French Polynesia Past Weather in Taiohae, Marquesas Islands, French Polynesia — Yesterday and Last 2 Weeks

Now
80 °F

Partly sunny.


Feels Like: 83 °F
Forecast: 78 / 83 °F
Wind: 15 mph from East

Location: Atuona

Current Time: Jul 23, 2016 at 9:54:20 AM

Latest Report: Jul 23, 2016 at 8:30 AM


Visibility: 22 mi

Pressure: 29.93 "Hg

Humidity: 67%

Dew Point: 69 °F

Location of TaiohaeLocation

Past Weather in Taiohae — Graph

°F

Taiohae Temperature Yesterday

Maximum temperature yesterday: 84 °F (at 10:30 AM)
Minimum temperature yesterday: 80 °F (at 12:30 AM)
Average temperature yesterday: 81 °F

High & Low Weather Summary for the Past Weeks

 TemperatureHumidityPressure
High89 °F (Jul 10, 11:30 AM)93% (Jul 21, 2:30 AM)29.99 "Hg (Jul 21, 2:30 AM)
Low72 °F (Jul 17, 4:30 AM)49% (Jul 10, 11:30 AM)29.81 "Hg (Jul 16, 3:30 PM)
Average79 °F77%29.91 "Hg
* Reported Jul 8 8:30 AM — Jul 23 8:30 AM, Taiohae, Weather by CustomWeather, © 2016

Note: Actual official high and low records may vary slightly from our data, if they occured in-between our weather recording intervals... More about our weather records

Advertising

Taiohae Weather History for the Previous 24 Hours

Scroll right to see more
 ConditionsComfort  
Time TempWeatherWind HumidityBarometerVisibility
8:30 AM
Sat, Jul 23
80 °FPartly sunny.15 mph67%29.93 "Hg22 mi
7:30 AM80 °FWarm.18 mph69%29.91 "HgN/A
6:30 AM80 °FScattered clouds.17 mph67%29.90 "Hg19 mi
5:30 AM80 °FPassing clouds.17 mph67%29.89 "Hg19 mi
4:30 AM80 °FWarm.10 mph69%29.88 "HgN/A
3:30 AM80 °FWarm.17 mph68%29.88 "HgN/A
2:30 AM80 °FWarm.16 mph70%29.88 "HgN/A
1:30 AM80 °FWarm.16 mph64%29.90 "HgN/A
12:30 AM80 °FWarm.15 mph66%29.91 "HgN/A
11:30 PM
Fri, Jul 22
80 °FWarm.15 mph67%29.92 "HgN/A
10:30 PM81 °FWarm.16 mph67%29.92 "HgN/A
9:30 PM80 °FWarm.14 mph67%29.92 "HgN/A
8:30 PM80 °FWarm.15 mph71%29.92 "HgN/A
7:30 PM81 °FWarm.20 mph71%29.90 "HgN/A
6:30 PM81 °FWarm.15 mph67%29.89 "HgN/A
5:30 PM81 °FWarm.15 mph68%29.87 "HgN/A
4:30 PM81 °FScattered clouds.16 mph67%29.86 "Hg19 mi
3:30 PM81 °FScattered clouds.15 mph69%29.85 "Hg19 mi
2:30 PM82 °FScattered clouds.12 mph69%29.86 "Hg19 mi
1:30 PM82 °FScattered clouds.15 mph67%29.88 "Hg19 mi
12:30 PM83 °FScattered clouds.15 mph65%29.91 "Hg19 mi
11:30 AM82 °FScattered clouds.16 mph69%29.93 "Hg19 mi
10:30 AM84 °FScattered clouds.14 mph66%29.95 "Hg19 mi
9:30 AM82 °FScattered clouds.15 mph70%29.96 "Hg19 mi
Weather by CustomWeather, © 2016

See weather overviewHow to use our weather pages